This demonstration page uses our WeatherBlox Daily Observations layout. Learn more.

Left ArrowRight Arrow

38.83388, -104.82136

Hourly Observations for March 20, 2021

Temp ( °F °C ) Dew Point ( °F °C ) Humidity (%) Winds ( mph kmh ) Pressure ( in mb ) Visibility ( mi km ) Precip ( " mm )
1:58 am 01:58 Mostly Clear 44 6.8 24 -4.6 44 44 S 5 7 29.73 1007 10 16 0.00 0.00
2:58 am 02:58 Mostly Cloudy 46 7.7 24 -4.6 42 42 S 10 17 29.68 1005 10 16 0.00 0.00
3:58 am 03:58 Mostly Cloudy 41 5.2 24 -4.3 51 51 SSE 3 6 29.96 1014 10 16 0.00 0.00
4:58 am 04:58 Mostly Clear 42 5.3 23 -5.2 47 47 Calm 29.70 1006 10 16 0.00 0.00
5:58 am 05:58 Clear 50 10.2 13 -10.6 22 22 WSW 7 11 29.65 1004 10 16 0.00 0.00
6:58 am 06:58 Clear 45 7.2 16 -8.8 31 31 WNW 3 6 29.67 1005 10 16 0.00 0.00
7:58 am 07:58 Mostly Sunny 49 9.7 14 -10 24 24 Calm 29.66 1004 10 16 0.00 0.00
8:58 am 08:58 Sunny 52 11.2 12 -11.1 20 20 SSE 8 13 29.65 1004 10 16 0.00 0.00
9:58 am 09:58 Sunny 53 11.7 18 -7.6 25 25 SE 9 15 29.62 1003 10 16 0.00 0.00
10:58 am 10:58 Sunny 55 12.7 27 -2.6 35 35 ESE 10 17 29.57 1002 10 16 0.00 0.00
11:58 am 11:58 Sunny 61 16.2 10 -12 13 13 SE 26 43 29.50 999 10 16 0.00 0.00
12:14 pm 12:14 Sunny 61 16 12 -11 15 15 S 18 30 29.52 1000 10 16 0.00 0.00
12:58 pm 12:58 Sunny 62 16.8 14 -10.1 15 15 SSE 18 30 29.47 998 10 16 0.00 0.00
1:58 pm 13:58 Sunny 64 17.5 10 -12.3 12 12 SSE 20 31 29.44 997 10 16 0.00 0.00
2:58 pm 14:58 Sunny 64 17.8 7 -13.9 10 10 SSE 16 26 29.39 995 10 16 0.00 0.00
3:58 pm 15:58 Mostly Sunny 63 17.4 5 -14.9 10 10 S 17 28 29.41 996 10 16 0.00 0.00
4:58 pm 16:58 Partly Cloudy 62 16.7 9 -12.8 12 12 SSE 14 22 29.40 996 10 16 0.00 0.00
5:58 pm 17:58 Mostly Sunny 61 16 4 -15.3 10 10 ESE 10 17 29.36 994 10 16 0.00 0.00
6:58 pm 18:58 Sunny 59 14.8 3 -16.2 10 10 S 8 13 29.39 995 10 16 0.00 0.00
7:58 pm 19:58 Clear 54 12.2 9 -13 16 16 Calm 29.37 995 10 16 0.00 0.00
8:50 pm 20:50 Clear 55 13 1 -17 11 11 SSE 21 33 29.34 994 10 16 0.00 0.00
8:58 pm 20:58 Clear 56 13.2 2 -16.6 11 11 SE 20 31 29.33 993 10 16 0.00 0.00
9:58 pm 21:58 Clear 55 13 4 -15.7 12 12 SE 21 33 29.30 992 10 16 0.00 0.00
10:58 pm 22:58 Clear 54 12.3 8 -13.4 15 15 SE 20 31 29.30 992 10 16 0.00 0.00
11:58 pm 23:58 Clear 53 11.7 13 -10.4 20 20 SE 22 35 29.27 991 10 16 0.00 0.00

Powered by AerisWeather